Regional Weather Roundup
Issued by NWS Charleston, WV

Home | Current Version | Previous Version | Text Only | Print | Product List | Glossary Off
Versions: 1 2 3 4 5 6 7 8 9 10 11 12 13 14 15 16 17 18 19 20 21 22 23 24 25 26 27 28 29 30 31 32 33 34 35 36 37 38 39 40 41 42 43 44 45 46 47 48 49 50

000
ASUS41 KRLX 010810
RWRRLX
West Virginia Regional Weather Roundup
National Weather Service Charleston WV
400 AM EDT TUE SEP 01 2015

Note: "fair" indicates few or no clouds below 12,000 feet with no
significant weather and/or obstructions to visibility.

WVZ003-010900-
Northern Panhandle of West Virginia

CITY           SKY/WX    TMP DP  RH WIND       PRES   REMARKS
WHEELING       CLEAR     67  65  93 CALM      30.11F FOG
$$

WVZ009-010900-
Northwest West Virginia

CITY           SKY/WX    TMP DP  RH WIND       PRES   REMARKS
PARKERSBURG    CLEAR     67  65  93 CALM      30.13S FOG
$$

WVZ006-010900-
Western West Virginia

CITY           SKY/WX    TMP DP  RH WIND       PRES   REMARKS
HUNTINGTON     CLEAR     66  66 100 CALM      30.11S FOG
$$

WVZ015-010900-
West Central West Virginia

CITY           SKY/WX    TMP DP  RH WIND       PRES   REMARKS
CHARLESTON     PTCLDY    65  64  97 CALM      30.11F FOG
$$

WVZ022-031-010900-
North Central West Virginia

CITY           SKY/WX    TMP DP  RH WIND       PRES   REMARKS
CLARKSBURG     CLOUDY    68  67  96 CALM      30.12S
MORGANTOWN     CLEAR     68  63  84 CALM      30.13S
$$

WVZ025-035-042-045-010900-
Southern West Virginia

CITY           SKY/WX    TMP DP  RH WIND       PRES   REMARKS
BECKLEY        CLEAR     62  59  90 CALM      30.19F
LOGAN            N/A     66  66 100 MISG      30.15S FOG
BLUEFIELD      CLEAR     66  60  81 W6        30.21F
LEWISBURG      FOG       62  60  94 CALM      30.19R VSB 1/2
$$

WVZ047-010900-
Northern Mountains of West Virginia

CITY           SKY/WX    TMP DP  RH WIND       PRES   REMARKS
ELKINS         MOCLDY    61  59  93 CALM      30.18S FOG
$$

WVZ052-010900-
Eastern Panhandle of West Virginia

CITY           SKY/WX    TMP DP  RH WIND       PRES   REMARKS
MARTINSBURG    CLEAR     64  63  96 CALM      30.07R FOG
PETERSBURG     CLEAR     63  63  98 CALM      30.12S FOG
$$


USA.gov is the U.S. government's official web portal to all federal, state and local government web resources and services.